Regional Weather Roundup
Issued by NWS

Home | Current Version | Previous Version | Text Only | Print | Product List | Glossary On
Versions: 1 2 3 4 5 6 7 8 9 10 11 12 13 14 15 16 17 18 19 20 21 22 23 24 25 26 27 28 29 30 31 32 33 34 35 36 37 38 39 40 41 42 43 44 45 46 47 48 49 50
000
ASUS44 KMEG 221510
RWRTN
TENNESSEE HOURLY STATE WEATHER ROUNDUP
NATIONAL WEATHER SERVICE MEMPHIS TN
900 AM CST MON DEC 22 2014

TNZ002-004-019-021-049-052-054-088>092-221600-
WEST TENNESSEE

CITY           SKY/WX    TMP DP  RH WIND       PRES   REMARKS
MEMPHIS INTL   FOG       52  49  89 S10       29.81F VSB 1
NWS MEMPHIS      N/A     51 N/A N/A MISG        N/A
JACKSON        CLOUDY    52  47  83 S7G17     29.85R
DYERSBURG      CLOUDY    50  37  62 SE5       29.83F
UNION CITY     CLOUDY    46  46 100 SE8       29.82F
PARIS          CLOUDY    46  45  93 SE10      29.85S
HUNTINGDON     CLOUDY    49  45  86 S8        29.86F
LEXINGTON      CLOUDY    50  46  87 SE8       29.85F
SAVANNAH       CLOUDY    52  48  87 S9        29.87F
$$

TNZ008-025-027-028-033-062-065-066-221600-
NORTH MIDDLE TENNESSEE

CITY           SKY/WX    TMP DP  RH WIND       PRES   REMARKS
NASHVILLE      CLOUDY    51  45  79 S14       29.93F
CLARKSVILLE    CLOUDY    50  46  86 SE7       29.89F
SMYRNA         CLOUDY    51  45  80 S10       29.94F
COOKEVILLE     CLOUDY    48  43  81 S8        29.95S
CROSSVILLE     CLOUDY    47  39  74 SE8       29.98S
$$

TNZ061-075-076-078-094-096-097-221600-
SOUTH MIDDLE TENNESSEE

CITY           SKY/WX    TMP DP  RH WIND       PRES   REMARKS
FAYETTEVILLE   CLOUDY    46  45  93 MISG      29.92F
TULLAHOMA      CLOUDY    48  43  81 SE9       29.94F
WINCHESTER     CLOUDY    48  45  87 SE8       29.95F
MCMINNVILLE    PTSUNNY   52  46  82 CALM      29.94F
COLUMBIA       CLOUDY   N/A N/A N/A S6        29.90S
SHELBYVILLE    CLOUDY    50  46  87 SE7       29.93F
$$

TNZ017-018-042-046-047-221600-
NORTHEAST TENNESSEE

CITY           SKY/WX    TMP DP  RH WIND       PRES   REMARKS
TRI CITIES     PTSUNNY   45  38  76 NE7       30.06R
ELIZABETHTON   CLOUDY    48  39  71 SE5       30.05R
$$

TNZ012-013-036-069-073-074-221600-
CENTRAL EAST TENNESSEE

CITY           SKY/WX    TMP DP  RH WIND       PRES   REMARKS
KNOXVILLE      MOSUNNY   47  40  76 E3        30.01
OAK RIDGE      CLOUDY    47  38  71 NE6       30.03F
GATLINBURG     SUNNY     43  37  81 E3        30.02S
MORRISTOWN     SUNNY     46  39  76 E8        30.02F
$$

TNZ083-085-099-221600-
SOUTHEAST TENNESSEE

CITY           SKY/WX    TMP DP  RH WIND       PRES   REMARKS
CHATTANOOGA    CLOUDY    48  43  82 CALM      30.01F
$$

SKY/WX REPORTED AS FAIR MEANS FEW OR NO CLOUDS BELOW
12 THOUSAND FEET.




USA.gov is the U.S. government's official web portal to all federal, state and local government web resources and services.